owner,sensor,date,latitude,longitude,vertical_datum,wind_speed,wind_to_direction,wind_speed_of_gust,qcFlag 
COAPS,ioos:station:COAPS:N7:3,2008-09-29T16:44:00Z,29.6619,-84.3731,4.0,3.383,75.48,-9999.0,'1111122,1111122,1111122' 
COAPS,ioos:station:COAPS:N7:3,2008-09-29T16:45:00Z,29.6619,-84.3731,4.0,3.126,69.56,-9999.0,'1111122,1111122,1111122' 
COAPS,ioos:station:COAPS:N7:3,2008-09-29T16:46:00Z,29.6619,-84.3731,4.0,3.085,70.53,-9999.0,'1111122,1111122,1111122' 
COAPS,ioos:station:COAPS:N7:3,2008-09-29T16:47:00Z,29.6619,-84.3731,4.0,3.051,71.24,-9999.0,'1111122,1111122,1111122' 
COAPS,ioos:station:COAPS:N7:3,2008-09-29T16:48:00Z,29.6619,-84.3731,4.0,2.997,69.96,-9999.0,'1111122,1111122,1111122' 
COAPS,ioos:station:COAPS:N7:3,2008-09-29T16:49:00Z,29.6619,-84.3731,4.0,2.671,71.79,-9999.0,'1111122,1111122,1111122' 
COAPS,ioos:station:COAPS:N7:3,2008-09-29T16:50:00Z,29.6619,-84.3731,4.0,2.525,78.0,-9999.0,'1111122,1111122,1111122' 
COAPS,ioos:station:COAPS:N7:3,2008-09-29T16:51:00Z,29.6619,-84.3731,4.0,2.519,73.93,-9999.0,'1111122,1111122,1111122' 
COAPS,ioos:station:COAPS:N7:3,2008-09-29T16:52:00Z,29.6619,-84.3731,4.0,2.671,77.93,-9999.0,'1111122,1111122,1111122' 
COAPS,ioos:station:COAPS:N7:3,2008-09-29T16:53:00Z,29.6619,-84.3731,4.0,2.586,72.98,-9999.0,'1111122,1111122,1111122' 
COAPS,ioos:station:COAPS:N7:3,2008-09-29T16:54:00Z,29.6619,-84.3731,4.0,2.698,73.84,-9999.0,'1111122,1111122,1111122' 
COAPS,ioos:station:COAPS:N7:3,2008-09-29T16:55:00Z,29.6619,-84.3731,4.0,2.677,74.64,-9999.0,'1111122,1111122,1111122' 
COAPS,ioos:station:COAPS:N7:3,2008-09-29T16:56:00Z,29.6619,-84.3731,4.0,2.46,76.84,-9999.0,'1111122,1111122,1111122' 
COAPS,ioos:station:COAPS:N7:3,2008-09-29T16:57:00Z,29.6619,-84.3731,4.0,2.528,81.9,-9999.0,'1111122,1111122,1111122' 
COAPS,ioos:station:COAPS:N7:3,2008-09-29T16:58:00Z,29.6619,-84.3731,4.0,2.373,78.29,-9999.0,'1111122,1111122,1111122' 
COAPS,ioos:station:COAPS:N7:3,2008-09-29T16:59:00Z,29.6619,-84.3731,4.0,2.166,86.0,-9999.0,'1111122,1111122,1111122' 
COAPS,ioos:station:COAPS:N7:3,2008-09-29T17:00:00Z,29.6619,-84.3731,4.0,2.345,85.9,-9999.0,'1111122,1111122,1111122' 
COAPS,ioos:station:COAPS:N7:3,2008-09-29T17:01:00Z,29.6619,-84.3731,4.0,2.197,84.1,-9999.0,'1111122,1111122,1111122' 
COAPS,ioos:station:COAPS:N7:3,2008-09-29T17:02:00Z,29.6619,-84.3731,4.0,2.167,83.4,-9999.0,'1111122,1111122,1111122' 
COAPS,ioos:station:COAPS:N7:3,2008-09-29T17:03:00Z,29.6619,-84.3731,4.0,2.146,84.0,-9999.0,'1111122,1111122,1111122' 
COAPS,ioos:station:COAPS:N7:3,2008-09-29T17:04:00Z,29.6619,-84.3731,4.0,2.305,84.9,-9999.0,'1111122,1111122,1111122' 
COAPS,ioos:station:COAPS:N7:3,2008-09-29T17:05:00Z,29.6619,-84.3731,4.0,2.388,85.8,-9999.0,'1111122,1111122,1111122' 
COAPS,ioos:station:COAPS:N7:3,2008-09-29T17:06:00Z,29.6619,-84.3731,4.0,2.236,83.4,-9999.0,'1111122,1111122,1111122' 
COAPS,ioos:station:COAPS:N7:3,2008-09-29T17:07:00Z,29.6619,-84.3731,4.0,2.303,84.3,-9999.0,'1111122,1111122,1111122' 
COAPS,ioos:station:COAPS:N7:3,2008-09-29T17:08:00Z,29.6619,-84.3731,4.0,2.411,90.0,-9999.0,'1111122,1111122,1111122' 
COAPS,ioos:station:COAPS:N7:3,2008-09-29T17:09:00Z,29.6619,-84.3731,4.0,2.352,87.3,-9999.0,'1111122,1111122,1111122' 
COAPS,ioos:station:COAPS:N7:3,2008-09-29T17:10:00Z,29.6619,-84.3731,4.0,2.365,82.6,-9999.0,'1111122,1111122,1111122' 
COAPS,ioos:station:COAPS:N7:3,2008-09-29T17:11:00Z,29.6619,-84.3731,4.0,2.326,87.9,-9999.0,'1111122,1111122,1111122' 
COAPS,ioos:station:COAPS:N7:3,2008-09-29T17:12:00Z,29.6619,-84.3731,4.0,2.331,95.3,-9999.0,'1111122,1111122,1111122' 
COAPS,ioos:station:COAPS:N7:3,2008-09-29T17:13:00Z,29.6619,-84.3731,4.0,2.406,94.2,-9999.0,'1111122,1111122,1111122' 
COAPS,ioos:station:COAPS:N7:3,2008-09-29T17:14:00Z,29.6619,-84.3731,4.0,2.452,91.0,-9999.0,'1111122,1111122,1111122' 
COAPS,ioos:station:COAPS:N7:3,2008-09-29T17:15:00Z,29.6619,-84.3731,4.0,2.365,88.1,-9999.0,'1111122,1111122,1111122' 
COAPS,ioos:station:COAPS:N7:3,2008-09-29T17:16:00Z,29.6619,-84.3731,4.0,2.648,86.9,-9999.0,'1111122,1111122,1111122' 
COAPS,ioos:station:COAPS:N7:3,2008-09-29T17:17:00Z,29.6619,-84.3731,4.0,2.43,89.6,-9999.0,'1111122,1111122,1111122' 
COAPS,ioos:station:COAPS:N7:3,2008-09-29T17:18:00Z,29.6619,-84.3731,4.0,2.385,86.7,-9999.0,'1111122,1111122,1111122' 
COAPS,ioos:station:COAPS:N7:3,2008-09-29T17:19:00Z,29.6619,-84.3731,4.0,2.355,87.9,-9999.0,'1111122,1111122,1111122' 
COAPS,ioos:station:COAPS:N7:3,2008-09-29T17:20:00Z,29.6619,-84.3731,4.0,2.334,94.2,-9999.0,'1111122,1111122,1111122' 
COAPS,ioos:station:COAPS:N7:3,2008-09-29T17:21:00Z,29.6619,-84.3731,4.0,2.238,95.0,-9999.0,'1111122,1111122,1111122' 
COAPS,ioos:station:COAPS:N7:3,2008-09-29T17:22:00Z,29.6619,-84.3731,4.0,2.117,94.7,-9999.0,'1111122,1111122,1111122' 
COAPS,ioos:station:COAPS:N7:3,2008-09-29T17:23:00Z,29.6619,-84.3731,4.0,2.063,92.1,-9999.0,'1111122,1111122,1111122' 
COAPS,ioos:station:COAPS:N7:3,2008-09-29T17:24:00Z,29.6619,-84.3731,4.0,2.256,94.5,-9999.0,'1111122,1111122,1111122' 
COAPS,ioos:station:COAPS:N7:3,2008-09-29T17:25:00Z,29.6619,-84.3731,4.0,2.233,89.6,-9999.0,'1111122,1111122,1111122' 
COAPS,ioos:station:COAPS:N7:3,2008-09-29T17:26:00Z,29.6619,-84.3731,4.0,2.354,86.6,-9999.0,'1111122,1111122,1111122' 
COAPS,ioos:station:COAPS:N7:3,2008-09-29T17:27:00Z,29.6619,-84.3731,4.0,2.277,84.7,-9999.0,'1111122,1111122,1111122' 
COAPS,ioos:station:COAPS:N7:3,2008-09-29T17:28:00Z,29.6619,-84.3731,4.0,2.022,84.1,-9999.0,'1111122,1111122,1111122' 
COAPS,ioos:station:COAPS:N7:3,2008-09-29T17:29:00Z,29.6619,-84.3731,4.0,1.97,83.2,-9999.0,'1111122,1111122,1111122' 
COAPS,ioos:station:COAPS:N7:3,2008-09-29T17:30:00Z,29.6619,-84.3731,4.0,2.594,77.5,-9999.0,'1111122,1111122,1111122' 
COAPS,ioos:station:COAPS:N7:3,2008-09-29T17:31:00Z,29.6619,-84.3731,4.0,2.471,75.04,-9999.0,'1111122,1111122,1111122' 
COAPS,ioos:station:COAPS:N7:3,2008-09-29T17:32:00Z,29.6619,-84.3731,4.0,2.461,77.83,-9999.0,'1111122,1111122,1111122' 
COAPS,ioos:station:COAPS:N7:3,2008-09-29T17:33:00Z,29.6619,-84.3731,4.0,2.417,80.4,-9999.0,'1111122,1111122,1111122' 
COAPS,ioos:station:COAPS:N7:3,2008-09-29T17:34:00Z,29.6619,-84.3731,4.0,2.437,79.22,-9999.0,'1111122,1111122,1111122' 
COAPS,ioos:station:COAPS:N7:3,2008-09-29T17:35:00Z,29.6619,-84.3731,4.0,2.3,77.13,-9999.0,'1111122,1111122,1111122' 
COAPS,ioos:station:COAPS:N7:3,2008-09-29T17:36:00Z,29.6619,-84.3731,4.0,2.579,77.65,-9999.0,'1111122,1111122,1111122' 
COAPS,ioos:station:COAPS:N7:3,2008-09-29T17:37:00Z,29.6619,-84.3731,4.0,2.528,77.12,-9999.0,'1111122,1111122,1111122' 
COAPS,ioos:station:COAPS:N7:3,2008-09-29T17:38:00Z,29.6619,-84.3731,4.0,2.519,83.6,-9999.0,'1111122,1111122,1111122' 
COAPS,ioos:station:COAPS:N7:3,2008-09-29T17:39:00Z,29.6619,-84.3731,4.0,2.497,82.6,-9999.0,'1111122,1111122,1111122' 
COAPS,ioos:station:COAPS:N7:3,2008-09-29T17:40:00Z,29.6619,-84.3731,4.0,2.352,92.7,-9999.0,'1111122,1111122,1111122' 
COAPS,ioos:station:COAPS:N7:3,2008-09-29T17:41:00Z,29.6619,-84.3731,4.0,2.608,91.5,-9999.0,'1111122,1111122,1111122' 
COAPS,ioos:station:COAPS:N7:3,2008-09-29T17:42:00Z,29.6619,-84.3731,4.0,2.762,94.7,-9999.0,'1111122,1111122,1111122' 
COAPS,ioos:station:COAPS:N7:3,2008-09-29T17:43:00Z,29.6619,-84.3731,4.0,2.659,92.6,-9999.0,'1111122,1111122,1111122' 
COAPS,ioos:station:COAPS:N7:3,2008-09-29T17:44:00Z,29.6619,-84.3731,4.0,2.739,94.8,-9999.0,'1111122,1111122,1111122' 
COAPS,ioos:station:COAPS:N7:3,2008-09-29T17:45:00Z,29.6619,-84.3731,4.0,2.499,94.3,-9999.0,'1111122,1111122,1111122' 
COAPS,ioos:station:COAPS:N7:3,2008-09-29T17:46:00Z,29.6619,-84.3731,4.0,2.623,92.9,-9999.0,'1111122,1111122,1111122' 
COAPS,ioos:station:COAPS:N7:3,2008-09-29T17:47:00Z,29.6619,-84.3731,4.0,2.61,88.5,-9999.0,'1111122,1111122,1111122' 
COAPS,ioos:station:COAPS:N7:3,2008-09-29T17:48:00Z,29.6619,-84.3731,4.0,2.731,84.2,-9999.0,'1111122,1111122,1111122' 
COAPS,ioos:station:COAPS:N7:3,2008-09-29T17:49:00Z,29.6619,-84.3731,4.0,2.711,89.9,-9999.0,'1111122,1111122,1111122' 
COAPS,ioos:station:COAPS:N7:3,2008-09-29T17:50:00Z,29.6619,-84.3731,4.0,2.535,90.4,-9999.0,'1111122,1111122,1111122' 
COAPS,ioos:station:COAPS:N7:3,2008-09-29T17:51:00Z,29.6619,-84.3731,4.0,2.489,86.5,-9999.0,'1111122,1111122,1111122' 
COAPS,ioos:station:COAPS:N7:3,2008-09-29T17:52:00Z,29.6619,-84.3731,4.0,2.313,90.9,-9999.0,'1111122,1111122,1111122' 
COAPS,ioos:station:COAPS:N7:3,2008-09-29T17:53:00Z,29.6619,-84.3731,4.0,2.225,94.3,-9999.0,'1111122,1111122,1111122' 
COAPS,ioos:station:COAPS:N7:3,2008-09-29T17:54:00Z,29.6619,-84.3731,4.0,2.171,101.2,-9999.0,'1111122,1111122,1111122' 
COAPS,ioos:station:COAPS:N7:3,2008-09-29T17:55:00Z,29.6619,-84.3731,4.0,2.298,98.1,-9999.0,'1111122,1111122,1111122' 
COAPS,ioos:station:COAPS:N7:3,2008-09-29T17:56:00Z,29.6619,-84.3731,4.0,2.177,95.3,-9999.0,'1111122,1111122,1111122' 
COAPS,ioos:station:COAPS:N7:3,2008-09-29T17:57:00Z,29.6619,-84.3731,4.0,2.197,99.2,-9999.0,'1111122,1111122,1111122' 
COAPS,ioos:station:COAPS:N7:3,2008-09-29T17:58:00Z,29.6619,-84.3731,4.0,2.118,96.6,-9999.0,'1111122,1111122,1111122' 
COAPS,ioos:station:COAPS:N7:3,2008-09-29T17:59:00Z,29.6619,-84.3731,4.0,1.895,95.8,-9999.0,'1111122,1111122,1111122' 
COAPS,ioos:station:COAPS:N7:3,2008-09-29T18:00:00Z,29.6619,-84.3731,4.0,2.006,99.9,-9999.0,'1111122,1111122,1111122' 
COAPS,ioos:station:COAPS:N7:3,2008-09-29T18:01:00Z,29.6619,-84.3731,4.0,2.033,95.7,-9999.0,'1111122,1111122,1111122' 
COAPS,ioos:station:COAPS:N7:3,2008-09-29T18:02:00Z,29.6619,-84.3731,4.0,2.104,96.5,-9999.0,'1111122,1111122,1111122' 
COAPS,ioos:station:COAPS:N7:3,2008-09-29T18:03:00Z,29.6619,-84.3731,4.0,2.176,93.1,-9999.0,'1111122,1111122,1111122' 
COAPS,ioos:station:COAPS:N7:3,2008-09-29T18:04:00Z,29.6619,-84.3731,4.0,1.978,96.2,-9999.0,'1111122,1111122,1111122' 
COAPS,ioos:station:COAPS:N7:3,2008-09-29T18:05:00Z,29.6619,-84.3731,4.0,1.903,95.6,-9999.0,'1111122,1111122,1111122' 
COAPS,ioos:station:COAPS:N7:3,2008-09-29T18:06:00Z,29.6619,-84.3731,4.0,1.687,98.0,-9999.0,'1111122,1111122,1111122' 
COAPS,ioos:station:COAPS:N7:3,2008-09-29T18:07:00Z,29.6619,-84.3731,4.0,1.576,98.6,-9999.0,'1111122,1111122,1111122' 
COAPS,ioos:station:COAPS:N7:3,2008-09-29T18:08:00Z,29.6619,-84.3731,4.0,1.731,106.2,-9999.0,'1111122,1111122,1111122' 
COAPS,ioos:station:COAPS:N7:3,2008-09-29T18:09:00Z,29.6619,-84.3731,4.0,1.813,105.8,-9999.0,'1111122,1111122,1111122' 
COAPS,ioos:station:COAPS:N7:3,2008-09-29T18:10:00Z,29.6619,-84.3731,4.0,1.792,100.7,-9999.0,'1111122,1111122,1111122' 
COAPS,ioos:station:COAPS:N7:3,2008-09-29T18:11:00Z,29.6619,-84.3731,4.0,1.95,100.5,-9999.0,'1111122,1111122,1111122' 
COAPS,ioos:station:COAPS:N7:3,2008-09-29T18:12:00Z,29.6619,-84.3731,4.0,1.816,101.8,-9999.0,'1111122,1111122,1111122' 
COAPS,ioos:station:COAPS:N7:3,2008-09-29T18:13:00Z,29.6619,-84.3731,4.0,1.815,101.9,-9999.0,'1111122,1111122,1111122' 
COAPS,ioos:station:COAPS:N7:3,2008-09-29T18:14:00Z,29.6619,-84.3731,4.0,1.723,100.6,-9999.0,'1111122,1111122,1111122' 
COAPS,ioos:station:COAPS:N7:3,2008-09-29T18:15:00Z,29.6619,-84.3731,4.0,1.865,111.5,-9999.0,'1111122,1111122,1111122' 
COAPS,ioos:station:COAPS:N7:3,2008-09-29T18:16:00Z,29.6619,-84.3731,4.0,1.949,109.6,-9999.0,'1111122,1111122,1111122' 
COAPS,ioos:station:COAPS:N7:3,2008-09-29T18:17:00Z,29.6619,-84.3731,4.0,1.824,103.9,-9999.0,'1111122,1111122,1111122' 
COAPS,ioos:station:COAPS:N7:3,2008-09-29T18:18:00Z,29.6619,-84.3731,4.0,1.7,110.0,-9999.0,'1111122,1111122,1111122' 
COAPS,ioos:station:COAPS:N7:3,2008-09-29T18:19:00Z,29.6619,-84.3731,4.0,1.901,115.5,-9999.0,'1111122,1111122,1111122' 
COAPS,ioos:station:COAPS:N7:3,2008-09-29T18:20:00Z,29.6619,-84.3731,4.0,1.962,111.6,-9999.0,'1111122,1111122,1111122' 
COAPS,ioos:station:COAPS:N7:3,2008-09-29T18:21:00Z,29.6619,-84.3731,4.0,1.942,111.8,-9999.0,'1111122,1111122,1111122' 
COAPS,ioos:station:COAPS:N7:3,2008-09-29T18:22:00Z,29.6619,-84.3731,4.0,1.808,111.4,-9999.0,'1111122,1111122,1111122' 
COAPS,ioos:station:COAPS:N7:3,2008-09-29T18:23:00Z,29.6619,-84.3731,4.0,1.746,109.1,-9999.0,'1111122,1111122,1111122' 
COAPS,ioos:station:COAPS:N7:3,2008-09-29T18:24:00Z,29.6619,-84.3731,4.0,1.743,109.2,-9999.0,'1111122,1111122,1111122' 
COAPS,ioos:station:COAPS:N7:3,2008-09-29T18:25:00Z,29.6619,-84.3731,4.0,1.637,113.5,-9999.0,'1111122,1111122,1111122' 
COAPS,ioos:station:COAPS:N7:3,2008-09-29T18:26:00Z,29.6619,-84.3731,4.0,1.508,123.9,-9999.0,'1111122,1111122,1111122' 
COAPS,ioos:station:COAPS:N7:3,2008-09-29T18:27:00Z,29.6619,-84.3731,4.0,1.676,127.8,-9999.0,'1111122,1111122,1111122' 
COAPS,ioos:station:COAPS:N7:3,2008-09-29T18:28:00Z,29.6619,-84.3731,4.0,1.715,124.0,-9999.0,'1111122,1111122,1111122' 
COAPS,ioos:station:COAPS:N7:3,2008-09-29T18:29:00Z,29.6619,-84.3731,4.0,1.648,122.9,-9999.0,'1111122,1111122,1111122' 
COAPS,ioos:station:COAPS:N7:3,2008-09-29T18:30:00Z,29.6619,-84.3731,4.0,1.547,129.6,-9999.0,'1111122,1111122,1111122' 
COAPS,ioos:station:COAPS:N7:3,2008-09-29T18:31:00Z,29.6619,-84.3731,4.0,1.526,124.3,-9999.0,'1111122,1111122,1111122' 
COAPS,ioos:station:COAPS:N7:3,2008-09-29T18:32:00Z,29.6619,-84.3731,4.0,1.753,125.7,-9999.0,'1111122,1111122,1111122' 
COAPS,ioos:station:COAPS:N7:3,2008-09-29T18:33:00Z,29.6619,-84.3731,4.0,1.702,128.5,-9999.0,'1111122,1111122,1111122' 
COAPS,ioos:station:COAPS:N7:3,2008-09-29T18:34:00Z,29.6619,-84.3731,4.0,1.757,126.7,-9999.0,'1111122,1111122,1111122' 
COAPS,ioos:station:COAPS:N7:3,2008-09-29T18:35:00Z,29.6619,-84.3731,4.0,1.802,120.8,-9999.0,'1111122,1111122,1111122' 
COAPS,ioos:station:COAPS:N7:3,2008-09-29T18:36:00Z,29.6619,-84.3731,4.0,1.655,112.6,-9999.0,'1111122,1111122,1111122' 
COAPS,ioos:station:COAPS:N7:3,2008-09-29T18:37:00Z,29.6619,-84.3731,4.0,1.694,112.6,-9999.0,'1111122,1111122,1111122' 
COAPS,ioos:station:COAPS:N7:3,2008-09-29T18:38:00Z,29.6619,-84.3731,4.0,1.707,119.4,-9999.0,'1111122,1111122,1111122' 
COAPS,ioos:station:COAPS:N7:3,2008-09-29T18:39:00Z,29.6619,-84.3731,4.0,1.775,124.1,-9999.0,'1111122,1111122,1111122' 
COAPS,ioos:station:COAPS:N7:3,2008-09-29T18:40:00Z,29.6619,-84.3731,4.0,1.81,119.5,-9999.0,'1111122,1111122,1111122' 
COAPS,ioos:station:COAPS:N7:3,2008-09-29T18:41:00Z,29.6619,-84.3731,4.0,1.759,117.8,-9999.0,'1111122,1111122,1111122' 
COAPS,ioos:station:COAPS:N7:3,2008-09-29T18:42:00Z,29.6619,-84.3731,4.0,1.436,120.9,-9999.0,'1111122,1111122,1111122' 
COAPS,ioos:station:COAPS:N7:3,2008-09-29T18:43:00Z,29.6619,-84.3731,4.0,1.646,122.9,-9999.0,'1111122,1111122,1111122' 
COAPS,ioos:station:COAPS:N7:3,2008-09-29T18:44:00Z,29.6619,-84.3731,4.0,1.362,126.1,-9999.0,'1111122,1111122,1111122' 
COAPS,ioos:station:COAPS:N7:3,2008-09-29T18:45:00Z,29.6619,-84.3731,4.0,1.241,128.6,-9999.0,'1111122,1111122,1111122' 
COAPS,ioos:station:COAPS:N7:3,2008-09-29T18:46:00Z,29.6619,-84.3731,4.0,1.263,122.6,-9999.0,'1111122,1111122,1111122' 
COAPS,ioos:station:COAPS:N7:3,2008-09-29T18:47:00Z,29.6619,-84.3731,4.0,1.132,121.6,-9999.0,'1111122,1111122,1111122' 
COAPS,ioos:station:COAPS:N7:3,2008-09-29T18:48:00Z,29.6619,-84.3731,4.0,1.227,132.0,-9999.0,'1111122,1111122,1111122' 
COAPS,ioos:station:COAPS:N7:3,2008-09-29T18:49:00Z,29.6619,-84.3731,4.0,1.508,123.2,-9999.0,'1111122,1111122,1111122' 
COAPS,ioos:station:COAPS:N7:3,2008-09-29T18:50:00Z,29.6619,-84.3731,4.0,1.512,110.3,-9999.0,'1111122,1111122,1111122' 
COAPS,ioos:station:COAPS:N7:3,2008-09-29T18:51:00Z,29.6619,-84.3731,4.0,1.504,112.6,-9999.0,'1111122,1111122,1111122' 
COAPS,ioos:station:COAPS:N7:3,2008-09-29T18:52:00Z,29.6619,-84.3731,4.0,1.506,116.4,-9999.0,'1111122,1111122,1111122' 
COAPS,ioos:station:COAPS:N7:3,2008-09-29T18:53:00Z,29.6619,-84.3731,4.0,1.258,121.5,-9999.0,'1111122,1111122,1111122' 
COAPS,ioos:station:COAPS:N7:3,2008-09-29T18:54:00Z,29.6619,-84.3731,4.0,1.558,115.8,-9999.0,'1111122,1111122,1111122' 
COAPS,ioos:station:COAPS:N7:3,2008-09-29T18:55:00Z,29.6619,-84.3731,4.0,1.367,116.8,-9999.0,'1111122,1111122,1111122' 
COAPS,ioos:station:COAPS:N7:3,2008-09-29T18:56:00Z,29.6619,-84.3731,4.0,1.39,120.6,-9999.0,'1111122,1111122,1111122' 
COAPS,ioos:station:COAPS:N7:3,2008-09-29T18:57:00Z,29.6619,-84.3731,4.0,1.53,123.8,-9999.0,'1111122,1111122,1111122' 
COAPS,ioos:station:COAPS:N7:3,2008-09-29T18:58:00Z,29.6619,-84.3731,4.0,1.534,118.6,-9999.0,'1111122,1111122,1111122' 
COAPS,ioos:station:COAPS:N7:3,2008-09-29T18:59:00Z,29.6619,-84.3731,4.0,1.228,118.8,-9999.0,'1111122,1111122,1111122' 
COAPS,ioos:station:COAPS:N7:3,2008-09-29T19:00:00Z,29.6619,-84.3731,4.0,1.287,123.3,-9999.0,'1111122,1111122,1111122' 
COAPS,ioos:station:COAPS:N7:3,2008-09-29T19:01:00Z,29.6619,-84.3731,4.0,1.413,127.6,-9999.0,'1111122,1111122,1111122' 
COAPS,ioos:station:COAPS:N7:3,2008-09-29T19:02:00Z,29.6619,-84.3731,4.0,1.134,120.2,-9999.0,'1111122,1111122,1111122' 
COAPS,ioos:station:COAPS:N7:3,2008-09-29T19:03:00Z,29.6619,-84.3731,4.0,1.475,113.9,-9999.0,'1111122,1111122,1111122' 
COAPS,ioos:station:COAPS:N7:3,2008-09-29T19:04:00Z,29.6619,-84.3731,4.0,1.383,113.3,-9999.0,'1111122,1111122,1111122' 
COAPS,ioos:station:COAPS:N7:3,2008-09-29T19:05:00Z,29.6619,-84.3731,4.0,1.401,119.5,-9999.0,'1111122,1111122,1111122' 
COAPS,ioos:station:COAPS:N7:3,2008-09-29T19:06:00Z,29.6619,-84.3731,4.0,1.183,127.4,-9999.0,'1111122,1111122,1111122' 
COAPS,ioos:station:COAPS:N7:3,2008-09-29T19:07:00Z,29.6619,-84.3731,4.0,1.326,124.0,-9999.0,'1111122,1111122,1111122' 
COAPS,ioos:station:COAPS:N7:3,2008-09-29T19:08:00Z,29.6619,-84.3731,4.0,1.467,109.5,-9999.0,'1111122,1111122,1111122' 
COAPS,ioos:station:COAPS:N7:3,2008-09-29T19:09:00Z,29.6619,-84.3731,4.0,1.418,105.8,-9999.0,'1111122,1111122,1111122' 
COAPS,ioos:station:COAPS:N7:3,2008-09-29T19:10:00Z,29.6619,-84.3731,4.0,1.202,106.6,-9999.0,'1111122,1111122,1111122' 
COAPS,ioos:station:COAPS:N7:3,2008-09-29T19:11:00Z,29.6619,-84.3731,4.0,1.316,112.7,-9999.0,'1111122,1111122,1111122' 
COAPS,ioos:station:COAPS:N7:3,2008-09-29T19:12:00Z,29.6619,-84.3731,4.0,0.99,115.4,-9999.0,'1111122,1111122,1111122' 
COAPS,ioos:station:COAPS:N7:3,2008-09-29T19:13:00Z,29.6619,-84.3731,4.0,0.967,121.0,-9999.0,'1111122,1111122,1111122' 
COAPS,ioos:station:COAPS:N7:3,2008-09-29T19:14:00Z,29.6619,-84.3731,4.0,1.397,114.9,-9999.0,'1111122,1111122,1111122' 
COAPS,ioos:station:COAPS:N7:3,2008-09-29T19:15:00Z,29.6619,-84.3731,4.0,1.312,118.5,-9999.0,'1111122,1111122,1111122' 
COAPS,ioos:station:COAPS:N7:3,2008-09-29T19:16:00Z,29.6619,-84.3731,4.0,1.13,130.5,-9999.0,'1111122,1111122,1111122' 
COAPS,ioos:station:COAPS:N7:3,2008-09-29T19:17:00Z,29.6619,-84.3731,4.0,1.132,139.1,-9999.0,'1111122,1111122,1111122' 
COAPS,ioos:station:COAPS:N7:3,2008-09-29T19:18:00Z,29.6619,-84.3731,4.0,1.153,136.1,-9999.0,'1111122,1111122,1111122' 
COAPS,ioos:station:COAPS:N7:3,2008-09-29T19:19:00Z,29.6619,-84.3731,4.0,1.129,138.4,-9999.0,'1111122,1111122,1111122' 
COAPS,ioos:station:COAPS:N7:3,2008-09-29T19:20:00Z,29.6619,-84.3731,4.0,1.068,136.8,-9999.0,'1111122,1111122,1111122' 
COAPS,ioos:station:COAPS:N7:3,2008-09-29T19:21:00Z,29.6619,-84.3731,4.0,1.047,142.2,-9999.0,'1111122,1111122,1111122' 
COAPS,ioos:station:COAPS:N7:3,2008-09-29T19:22:00Z,29.6619,-84.3731,4.0,1.299,132.8,-9999.0,'1111122,1111122,1111122' 
COAPS,ioos:station:COAPS:N7:3,2008-09-29T19:23:00Z,29.6619,-84.3731,4.0,1.109,141.2,-9999.0,'1111122,1111122,1111122' 
COAPS,ioos:station:COAPS:N7:3,2008-09-29T19:24:00Z,29.6619,-84.3731,4.0,1.251,146.1,-9999.0,'1111122,1111122,1111122' 
COAPS,ioos:station:COAPS:N7:3,2008-09-29T19:25:00Z,29.6619,-84.3731,4.0,1.305,139.0,-9999.0,'1111122,1111122,1111122' 
COAPS,ioos:station:COAPS:N7:3,2008-09-29T19:26:00Z,29.6619,-84.3731,4.0,1.127,148.3,-9999.0,'1111122,1111122,1111122' 
COAPS,ioos:station:COAPS:N7:3,2008-09-29T19:27:00Z,29.6619,-84.3731,4.0,1.248,147.6,-9999.0,'1111122,1111122,1111122' 
COAPS,ioos:station:COAPS:N7:3,2008-09-29T19:28:00Z,29.6619,-84.3731,4.0,1.224,154.4,-9999.0,'1111122,1111122,1111122' 
COAPS,ioos:station:COAPS:N7:3,2008-09-29T19:29:00Z,29.6619,-84.3731,4.0,1.134,166.3,-9999.0,'1111122,1111122,1111122' 
COAPS,ioos:station:COAPS:N7:3,2008-09-29T19:30:00Z,29.6619,-84.3731,4.0,1.12,160.2,-9999.0,'1111122,1111122,1111122' 
COAPS,ioos:station:COAPS:N7:3,2008-09-29T19:31:00Z,29.6619,-84.3731,4.0,0.995,162.1,-9999.0,'1111122,1111122,1111122' 
COAPS,ioos:station:COAPS:N7:3,2008-09-29T19:32:00Z,29.6619,-84.3731,4.0,1.083,150.1,-9999.0,'1111122,1111122,1111122' 
COAPS,ioos:station:COAPS:N7:3,2008-09-29T19:33:00Z,29.6619,-84.3731,4.0,1.098,151.1,-9999.0,'1111122,1111122,1111122' 
COAPS,ioos:station:COAPS:N7:3,2008-09-29T19:34:00Z,29.6619,-84.3731,4.0,0.788,156.4,-9999.0,'1111122,1111122,1111122' 
COAPS,ioos:station:COAPS:N7:3,2008-09-29T19:35:00Z,29.6619,-84.3731,4.0,1.026,168.0,-9999.0,'1111122,1111122,1111122' 
COAPS,ioos:station:COAPS:N7:3,2008-09-29T19:36:00Z,29.6619,-84.3731,4.0,0.885,168.6,-9999.0,'1111122,1111122,1111122' 
COAPS,ioos:station:COAPS:N7:3,2008-09-29T19:37:00Z,29.6619,-84.3731,4.0,0.786,179.7,-9999.0,'1111122,1111122,1111122' 
COAPS,ioos:station:COAPS:N7:3,2008-09-29T19:38:00Z,29.6619,-84.3731,4.0,0.585,180.3,-9999.0,'1111122,1111122,1111122' 
COAPS,ioos:station:COAPS:N7:3,2008-09-29T19:39:00Z,29.6619,-84.3731,4.0,0.691,163.4,-9999.0,'1111122,1111122,1111122' 
COAPS,ioos:station:COAPS:N7:3,2008-09-29T19:40:00Z,29.6619,-84.3731,4.0,0.921,161.7,-9999.0,'1111122,1111122,1111122' 
COAPS,ioos:station:COAPS:N7:3,2008-09-29T19:41:00Z,29.6619,-84.3731,4.0,0.8,160.8,-9999.0,'1111122,1111122,1111122' 
COAPS,ioos:station:COAPS:N7:3,2008-09-29T19:42:00Z,29.6619,-84.3731,4.0,0.84,173.3,-9999.0,'1111122,1111122,1111122' 
COAPS,ioos:station:COAPS:N7:3,2008-09-29T19:43:00Z,29.6619,-84.3731,4.0,0.797,169.0,-9999.0,'1111122,1111122,1111122' 
COAPS,ioos:station:COAPS:N7:3,2008-09-29T19:44:00Z,29.6619,-84.3731,4.0,0.802,172.3,-9999.0,'1111122,1111122,1111122' 
COAPS,ioos:station:COAPS:N7:3,2008-09-29T19:45:00Z,29.6619,-84.3731,4.0,0.763,174.7,-9999.0,'1111122,1111122,1111122' 
COAPS,ioos:station:COAPS:N7:3,2008-09-29T19:46:00Z,29.6619,-84.3731,4.0,0.835,176.3,-9999.0,'1111122,1111122,1111122' 
COAPS,ioos:station:COAPS:N7:3,2008-09-29T19:47:00Z,29.6619,-84.3731,4.0,0.993,181.7,-9999.0,'1111122,1111122,1111122' 
COAPS,ioos:station:COAPS:N7:3,2008-09-29T19:48:00Z,29.6619,-84.3731,4.0,0.928,174.6,-9999.0,'1111122,1111122,1111122' 
COAPS,ioos:station:COAPS:N7:3,2008-09-29T19:49:00Z,29.6619,-84.3731,4.0,0.797,167.5,-9999.0,'1111122,1111122,1111122' 
COAPS,ioos:station:COAPS:N7:3,2008-09-29T19:50:00Z,29.6619,-84.3731,4.0,0.962,192.6,-9999.0,'1111122,1111122,1111122' 
COAPS,ioos:station:COAPS:N7:3,2008-09-29T19:51:00Z,29.6619,-84.3731,4.0,1.013,205.8,-9999.0,'1111122,1111122,1111122' 
COAPS,ioos:station:COAPS:N7:3,2008-09-29T19:52:00Z,29.6619,-84.3731,4.0,0.982,210.1,-9999.0,'1111122,1111122,1111122' 
COAPS,ioos:station:COAPS:N7:3,2008-09-29T19:53:00Z,29.6619,-84.3731,4.0,0.807,202.0,-9999.0,'1111122,1111122,1111122' 
COAPS,ioos:station:COAPS:N7:3,2008-09-29T19:54:00Z,29.6619,-84.3731,4.0,0.991,194.2,-9999.0,'1111122,1111122,1111122' 
COAPS,ioos:station:COAPS:N7:3,2008-09-29T19:55:00Z,29.6619,-84.3731,4.0,1.036,205.9,-9999.0,'1111122,1111122,1111122' 
COAPS,ioos:station:COAPS:N7:3,2008-09-29T19:56:00Z,29.6619,-84.3731,4.0,1.236,211.6,-9999.0,'1111122,1111122,1111122' 
COAPS,ioos:station:COAPS:N7:3,2008-09-29T19:57:00Z,29.6619,-84.3731,4.0,1.05,218.3,-9999.0,'1111122,1111122,1111122' 
COAPS,ioos:station:COAPS:N7:3,2008-09-29T19:58:00Z,29.6619,-84.3731,4.0,0.993,203.9,-9999.0,'1111122,1111122,1111122' 
COAPS,ioos:station:COAPS:N7:3,2008-09-29T19:59:00Z,29.6619,-84.3731,4.0,0.879,206.8,-9999.0,'1111122,1111122,1111122' 
COAPS,ioos:station:COAPS:N7:3,2008-09-29T20:00:00Z,29.6619,-84.3731,4.0,0.841,204.4,-9999.0,'1111122,1111122,1111122' 
COAPS,ioos:station:COAPS:N7:3,2008-09-29T20:01:00Z,29.6619,-84.3731,4.0,0.96,203.6,-9999.0,'1111122,1111122,1111122' 
COAPS,ioos:station:COAPS:N7:3,2008-09-29T20:02:00Z,29.6619,-84.3731,4.0,0.934,207.2,-9999.0,'1111122,1111122,1111122' 
COAPS,ioos:station:COAPS:N7:3,2008-09-29T20:03:00Z,29.6619,-84.3731,4.0,0.828,202.1,-9999.0,'1111122,1111122,1111122' 
COAPS,ioos:station:COAPS:N7:3,2008-09-29T20:04:00Z,29.6619,-84.3731,4.0,1.001,207.5,-9999.0,'1111122,1111122,1111122' 